Location: Unspecified
(41.5000°N, 0.0000°E)
Time: 23:08:58
(UTC+00:00)

deb Explorer IX - Pass Details

Date: 23 June 2019
Orbit: 544 x 1107 km, 38.8° (Epoch: 12 October)

Event Time Altitude Azimuth Distance (km) Brightness Sun altitude
Rises 18:13:12 0° 279° (W) 3,921 ? 13.3°
Reaches altitude 10° 18:16:14 10° 272° (W) 2,943 ? 12.8°
Maximum altitude 18:22:44 36° 209° (SSW) 1,578 ? 11.7°
Drops below altitude 10° 18:28:42 10° 144° (SE) 2,698 ? 10.6°
Sets 18:31:23 0° 136° (SE) 3,559 ? 10.2°
